Weather History for Cahokia, IL

Change the Weather History Date:

Sunday, May 5, 2013

  Actual Average Record
Temperature  
Mean Temperature 52 °F -  
Max Temperature 62 °F 72 °F 94 °F (1952)
Min Temperature 44 °F 51 °F 42 °F (1958)
Degree Days  
Heating Degree Days 12    
Growing Degree Days 2 (Base 50)    
Moisture  
Dew Point 50 °F    
Average Humidity 88    
Maximum Humidity 96    
Minimum Humidity 75    
Precipitation  
Precipitation 0.09 in - - ()
Sea Level Pressure  
Sea Level Pressure 29.95 in    
Wind  
Wind Speed 6 mph (North)    
Max Wind Speed 14 mph    
Max Gust Speed 21 mph    
Visibility 8 miles    
Events Rain    
Averages and records for this station are not official NWS values.
T = Trace of Precipitation, MM = Missing Value Source: NWS Daily Summary

Daily Weather History Graph

Daily Weather History Graph

Search for Another Location

Airport:

Trip Planner

Search our weather history database for the weather conditions in past years. The results will help you decide how hot, cold, wet, or windy it might be!

Date:

Astronomy

May. 05, 2013 Rise Set
Actual Time 5:58 AM CDT 7:56 PM CDT
Civil Twilight 5:29 AM CDT 8:25 PM CDT
Nautical Twilight 4:54 AM CDT 9:01 PM CDT
Astronomical Twilight 4:16 AM CDT 9:39 PM CDT
Moon 3:26 AM CDT (5/5) 3:58 PM CDT (5/5)
Length of Visible Light 14h 56m
Length of Day
13h 58m
Waning Crescent, 18% of the Moon is Illuminated
May 5
Waning Crescent
May 9
New
May 17
First Quarter
May 24
Full
May 31
Last Quarter

Hourly Weather History & Observations

Time (CDT) Temp. Windchill Dew Point Humidity Pressure Visibility Wind Dir Wind Speed Gust Speed Precip Events Conditions
12:27 AM 46.4 °F 45.2 °F 42.8 °F 87% 30.00 in 10.0 mi NE 3.5 mph - N/A   Scattered Clouds
12:53 AM 44.1 °F - 42.1 °F 93% 30.00 in 10.0 mi Calm Calm - N/A   Mostly Cloudy
1:53 AM 46.0 °F - 44.1 °F 93% 29.99 in 10.0 mi Calm Calm - N/A   Overcast
2:53 AM 46.9 °F - 45.0 °F 93% 29.97 in 10.0 mi North 4.6 mph - 0.00 in   Overcast
3:53 AM 48.0 °F - 45.0 °F 89% 29.98 in 10.0 mi North 5.8 mph - N/A   Overcast
4:53 AM 46.9 °F - 45.0 °F 93% 29.98 in 10.0 mi NNW 3.5 mph - N/A   Overcast
5:44 AM 48.2 °F - 44.6 °F 87% 29.96 in 8.0 mi NW 8.1 mph - N/A   Overcast
5:53 AM 48.0 °F - 45.0 °F 89% 29.96 in 6.0 mi NW 6.9 mph - N/A   Overcast
6:53 AM 48.0 °F - 46.0 °F 93% 29.97 in 7.0 mi NW 6.9 mph - 0.01 in   Overcast
7:53 AM 48.9 °F - 46.9 °F 93% 29.96 in 4.0 mi NNW 6.9 mph - 0.00 in   Overcast
8:14 AM 50.0 °F - 48.2 °F 94% 29.96 in 1.8 mi NNW 10.4 mph - 0.01 in Rain Light Rain
8:42 AM 50.0 °F - 48.2 °F 94% 29.97 in 2.5 mi North 8.1 mph - 0.02 in Rain Light Rain
8:51 AM 50.0 °F - 48.2 °F 94% 29.96 in 4.0 mi North 6.9 mph - 0.03 in Rain Light Rain
8:53 AM 50.0 °F - 48.9 °F 96% 29.96 in 3.0 mi North 5.8 mph - 0.03 in Rain Light Rain
9:53 AM 53.1 °F - 51.1 °F 93% 29.96 in 5.0 mi North 8.1 mph - 0.04 in Rain Light Rain
10:53 AM 57.0 °F - 54.0 °F 89% 29.95 in 9.0 mi North 9.2 mph - 0.00 in Rain Light Rain
11:53 AM 57.0 °F - 53.1 °F 87% 29.94 in 8.0 mi North 11.5 mph - 0.01 in Rain Light Rain
12:06 PM 57.2 °F - 53.6 °F 88% 29.94 in 3.0 mi North 11.5 mph - 0.00 in   Overcast
12:14 PM 57.2 °F - 53.6 °F 88% 29.94 in 3.0 mi North 10.4 mph - 0.00 in   Overcast
1:00 PM 57.2 °F - 53.6 °F 88% 29.92 in 8.0 mi NNW 9.2 mph - 0.00 in   Overcast
1:53 PM 59.0 °F - 54.0 °F 83% 29.92 in 10.0 mi NNW 11.5 mph - 0.00 in   Overcast
2:53 PM 61.0 °F - 55.0 °F 81% 29.90 in 10.0 mi NNW 8.1 mph - 0.00 in   Overcast
4:53 PM 61.0 °F - 53.1 °F 75% 29.89 in 10.0 mi NNE 13.8 mph - 0.00 in   Overcast
5:53 PM 60.1 °F - 54.0 °F 80% 29.90 in 10.0 mi North 12.7 mph 20.7 mph 0.00 in   Overcast
6:53 PM 57.9 °F - 53.1 °F 84% 29.90 in 10.0 mi NE 8.1 mph - 0.00 in   Overcast
7:53 PM 57.0 °F - 52.0 °F 83% 29.92 in 10.0 mi NE 4.6 mph - N/A   Overcast
8:50 PM 57.2 °F - 53.6 °F 88% 29.93 in 10.0 mi North 6.9 mph - N/A   Overcast
8:53 PM 57.0 °F - 53.1 °F 87% 29.93 in 10.0 mi NNE 5.8 mph - N/A   Overcast
9:53 PM 55.9 °F - 53.1 °F 90% 29.94 in 10.0 mi North 5.8 mph - N/A   Overcast
10:53 PM 57.0 °F - 53.1 °F 87% 29.93 in 10.0 mi North 5.8 mph - N/A   Overcast
11:53 PM 57.0 °F - 52.0 °F 83% 29.93 in 10.0 mi North 9.2 mph - N/A   Overcast